Regional Weather Roundup
Issued by NWS

Home | Current Version | Previous Version | Graphics & Text | Print | Product List | Glossary On
Versions: 1 2 3 4 5 6 7 8 9 10 11 12 13 14 15 16 17 18 19 20 21 22 23 24 25 26 27 28 29 30 31 32 33 34 35 36 37 38 39 40 41 42 43 44 45 46 47 48 49 50
000
ASUS45 KBOI 271010
RWRID
WEATHER ROUNDUP FOR IDAHO
NATIONAL WEATHER SERVICE BOISE ID
400 AM MDT SUN JUL 27 2014

NOTE: "FAIR" INDICATES FEW OR NO CLOUDS BELOW 12000 FEET
WITH NO SIGNIFICANT WEATHER AND/OR OBSTRUCTIONS TO VISIBILITY

IDZ012-014-271100-
SOUTHWEST IDAHO


CITY           SKY/WX    TMP DP  RH WIND       PRES   REMARKS
BOISE          CLEAR     68  31  25 SE7       30.08S
CALDWELL       CLEAR     57  41  54 CALM      30.09S
MOUNTAIN HOME  CLEAR     61  29  29 W3        30.08R
$$

IDZ016-017-271100-
SOUTHCENTRAL IDAHO


CITY           SKY/WX    TMP DP  RH WIND       PRES   REMARKS
BURLEY         CLOUDY    59  44  57 CALM      30.16R
JEROME         MOCLDY    63  38  39 E6        30.16R
TWIN FALLS     CLOUDY    68  28  22 S10       30.16R
$$

IDZ019>023-271100-
SOUTHEAST IDAHO


CITY           SKY/WX    TMP DP  RH WIND       PRES   REMARKS
IDAHO FALLS    PTCLDY    47  41  80 N7        30.24R
POCATELLO      CLEAR     53  36  52 CALM      30.21R
REXBURG        PTCLDY    49  40  71 NE7       30.25S
$$

IDZ006-010-011-018-031-032-271100-
CENTRAL IDAHO MOUNTAINS


CITY           SKY/WX    TMP DP  RH WIND       PRES   REMARKS
MCCALL         CLEAR     51  35  54 CALM      30.25R
HAILEY         PTCLDY    57  28  33 NW10G16   30.28S
STANLEY          N/A     36  25  64 CALM      30.39R
SALMON         CLEAR     50  36  57 CALM      30.23S
CHALLIS        CLEAR     53  30  41 CALM      30.27R
$$

IDZ002-004-006-007-026-271100-
NORTHERN IDAHO


CITY           SKY/WX    TMP DP  RH WIND       PRES   REMARKS
LEWISTON       CLEAR     67  37  33 CALM      30.09R
LOWELL           N/A     55  47  74 CALM      30.19R
COEUR D`ALENE  CLEAR     57  50  77 SE7       30.16S
MULLAN PASS    CLEAR     58  33  39 SE3       30.34S
$$



USA.gov is the U.S. government's official web portal to all federal, state and local government web resources and services.